TimeCST,TemperatureF,Dew PointF,Humidity,Sea Level PressureIn,VisibilityMPH,Wind Direction,Wind SpeedMPH,Gust SpeedMPH,PrecipitationIn,Events,Conditions,WindDirDegrees,DateUTC
12:15 AM,37.4,32.0,81,30.16,10.0,Calm,Calm,-,N/A,,Clear,0,2013-11-20 06:15:00
12:35 AM,35.6,32.0,87,30.15,10.0,Calm,Calm,-,N/A,,Clear,0,2013-11-20 06:35:00
12:55 AM,37.4,32.0,81,30.15,10.0,Calm,Calm,-,N/A,,Clear,0,2013-11-20 06:55:00
1:15 AM,35.6,32.0,87,30.14,10.0,Calm,Calm,-,N/A,,Clear,0,2013-11-20 07:15:00
1:35 AM,35.6,32.0,87,30.14,10.0,Calm,Calm,-,N/A,,Clear,0,2013-11-20 07:35:00
1:55 AM,37.4,32.0,81,30.14,10.0,Calm,Calm,-,N/A,,Clear,0,2013-11-20 07:55:00
2:15 AM,35.6,32.0,87,30.14,10.0,Calm,Calm,-,N/A,,Clear,0,2013-11-20 08:15:00
2:35 AM,37.4,32.0,81,30.15,10.0,Calm,Calm,-,N/A,,Clear,0,2013-11-20 08:35:00
2:55 AM,35.6,32.0,87,30.14,10.0,Calm,Calm,-,N/A,,Clear,0,2013-11-20 08:55:00
3:15 AM,37.4,32.0,81,30.14,10.0,Calm,Calm,-,N/A,,Clear,0,2013-11-20 09:15:00
3:35 AM,37.4,32.0,81,30.14,10.0,Calm,Calm,-,N/A,,Clear,0,2013-11-20 09:35:00
3:55 AM,37.4,32.0,81,30.14,10.0,Calm,Calm,-,N/A,,Clear,0,2013-11-20 09:55:00
4:15 AM,37.4,32.0,81,30.14,10.0,Calm,Calm,-,N/A,,Clear,0,2013-11-20 10:15:00
4:35 AM,37.4,33.8,87,30.13,10.0,Calm,Calm,-,N/A,,Clear,0,2013-11-20 10:35:00
4:55 AM,37.4,32.0,81,30.13,10.0,Calm,Calm,-,N/A,,Clear,0,2013-11-20 10:55:00
5:15 AM,37.4,32.0,81,30.14,10.0,Calm,Calm,-,N/A,,Clear,0,2013-11-20 11:15:00
5:35 AM,35.6,32.0,87,30.14,10.0,Calm,Calm,-,N/A,,Clear,0,2013-11-20 11:35:00
5:55 AM,35.6,32.0,87,30.14,10.0,Calm,Calm,-,N/A,,Clear,0,2013-11-20 11:55:00
6:15 AM,35.6,32.0,87,30.14,10.0,Calm,Calm,-,N/A,,Clear,0,2013-11-20 12:15:00
6:35 AM,35.6,32.0,87,30.14,10.0,Calm,Calm,-,N/A,,Clear,0,2013-11-20 12:35:00
6:55 AM,35.6,32.0,87,30.14,10.0,Calm,Calm,-,N/A,,Clear,0,2013-11-20 12:55:00
7:15 AM,35.6,32.0,87,30.14,10.0,Calm,Calm,-,N/A,,Clear,0,2013-11-20 13:15:00
7:35 AM,37.4,32.0,81,30.14,10.0,Calm,Calm,-,N/A,,Clear,0,2013-11-20 13:35:00
7:55 AM,41.0,32.0,70,30.15,10.0,Calm,Calm,-,N/A,,Clear,0,2013-11-20 13:55:00
8:15 AM,42.8,32.0,66,30.16,10.0,Calm,Calm,-,N/A,,Clear,0,2013-11-20 14:15:00
8:35 AM,44.6,32.0,61,30.16,10.0,ESE,3.5,-,N/A,,Clear,110,2013-11-20 14:35:00
8:55 AM,46.4,32.0,57,30.16,10.0,SE,5.8,-,N/A,,Clear,130,2013-11-20 14:55:00
9:15 AM,48.2,32.0,54,30.16,10.0,ESE,3.5,-,N/A,,Clear,110,2013-11-20 15:15:00
9:35 AM,50.0,32.0,50,30.15,10.0,SE,4.6,-,N/A,,Clear,140,2013-11-20 15:35:00
9:55 AM,53.6,32.0,44,30.15,10.0,SSE,6.9,-,N/A,,Clear,150,2013-11-20 15:55:00
10:15 AM,53.6,30.2,41,30.15,10.0,SE,8.1,-,N/A,,Clear,140,2013-11-20 16:15:00
10:35 AM,55.4,32.0,41,30.14,10.0,SE,5.8,-,N/A,,Clear,140,2013-11-20 16:35:00
10:55 AM,57.2,30.2,36,30.14,10.0,SE,5.8,-,N/A,,Clear,130,2013-11-20 16:55:00
11:15 AM,59.0,32.0,36,30.13,10.0,South,6.9,-,N/A,,Clear,180,2013-11-20 17:15:00
11:35 AM,59.0,30.2,34,30.12,10.0,SSE,6.9,-,N/A,,Clear,150,2013-11-20 17:35:00
11:55 AM,60.8,30.2,31,30.09,10.0,SSE,8.1,-,N/A,,Clear,150,2013-11-20 17:55:00
12:15 PM,62.6,28.4,27,30.07,10.0,SSE,8.1,-,N/A,,Clear,150,2013-11-20 18:15:00
12:35 PM,62.6,30.2,30,30.06,10.0,South,6.9,-,N/A,,Clear,180,2013-11-20 18:35:00
12:55 PM,64.4,28.4,26,30.05,10.0,SE,9.2,-,N/A,,Clear,140,2013-11-20 18:55:00
1:15 PM,66.2,30.2,26,30.04,10.0,ESE,5.8,-,N/A,,Clear,120,2013-11-20 19:15:00
1:35 PM,66.2,30.2,26,30.04,10.0,SSE,5.8,-,N/A,,Clear,150,2013-11-20 19:35:00
1:55 PM,66.2,30.2,26,30.03,10.0,SE,4.6,-,N/A,,Clear,130,2013-11-20 19:55:00
2:15 PM,66.2,28.4,24,30.03,10.0,Calm,Calm,-,N/A,,Clear,0,2013-11-20 20:15:00
2:35 PM,68.0,28.4,23,30.03,10.0,Calm,Calm,-,N/A,,Clear,0,2013-11-20 20:35:00
2:55 PM,66.2,28.4,24,30.03,10.0,Calm,Calm,-,N/A,,Clear,0,2013-11-20 20:55:00
3:15 PM,66.2,28.4,24,30.02,10.0,SSE,3.5,-,N/A,,Clear,150,2013-11-20 21:15:00
3:35 PM,66.2,30.2,26,30.03,10.0,Calm,Calm,-,N/A,,Clear,0,2013-11-20 21:35:00
3:55 PM,64.4,30.2,28,30.03,10.0,ESE,3.5,-,N/A,,Clear,110,2013-11-20 21:55:00
4:15 PM,64.4,32.0,30,30.02,10.0,SE,8.1,-,N/A,,Clear,130,2013-11-20 22:15:00
4:35 PM,64.4,32.0,30,30.02,10.0,East,3.5,-,N/A,,Clear,100,2013-11-20 22:35:00
4:55 PM,62.6,33.8,34,30.03,10.0,Calm,Calm,-,N/A,,Clear,0,2013-11-20 22:55:00
5:15 PM,57.2,37.4,48,30.03,10.0,Calm,Calm,-,N/A,,Clear,0,2013-11-20 23:15:00
5:35 PM,53.6,39.2,58,30.04,10.0,Calm,Calm,-,N/A,,Clear,0,2013-11-20 23:35:00
5:55 PM,51.8,41.0,67,30.04,10.0,Calm,Calm,-,N/A,,Clear,0,2013-11-20 23:55:00
6:15 PM,50.0,39.2,66,30.05,10.0,Calm,Calm,-,N/A,,Clear,0,2013-11-21 00:15:00
6:35 PM,48.2,41.0,76,30.06,10.0,Calm,Calm,-,N/A,,Clear,0,2013-11-21 00:35:00
6:55 PM,48.2,39.2,71,30.07,10.0,Calm,Calm,-,N/A,,Clear,0,2013-11-21 00:55:00
7:15 PM,46.4,39.2,76,30.08,10.0,Calm,Calm,-,N/A,,Clear,0,2013-11-21 01:15:00
7:35 PM,46.4,39.2,76,30.08,10.0,Calm,Calm,-,N/A,,Clear,0,2013-11-21 01:35:00
7:55 PM,46.4,39.2,76,30.08,10.0,Calm,Calm,-,N/A,,Clear,0,2013-11-21 01:55:00
8:15 PM,46.4,39.2,76,30.09,10.0,Calm,Calm,-,N/A,,Clear,0,2013-11-21 02:15:00
8:35 PM,46.4,41.0,81,30.08,10.0,SSE,3.5,-,N/A,,Clear,160,2013-11-21 02:35:00
8:55 PM,48.2,41.0,76,30.09,10.0,Calm,Calm,-,N/A,,Mostly Cloudy,0,2013-11-21 02:55:00
9:15 PM,50.0,44.6,82,30.09,10.0,Calm,Calm,-,N/A,,Overcast,0,2013-11-21 03:15:00
9:35 PM,51.8,41.0,67,30.08,10.0,SE,3.5,-,N/A,,Overcast,140,2013-11-21 03:35:00
9:55 PM,51.8,39.2,62,30.07,10.0,SE,5.8,-,N/A,,Overcast,140,2013-11-21 03:55:00
10:15 PM,51.8,39.2,62,30.07,10.0,SSE,3.5,-,N/A,,Mostly Cloudy,150,2013-11-21 04:15:00
10:35 PM,51.8,39.2,62,30.07,10.0,Calm,Calm,-,N/A,,Partly Cloudy,0,2013-11-21 04:35:00
10:55 PM,50.0,39.2,66,30.07,10.0,Calm,Calm,-,N/A,,Partly Cloudy,0,2013-11-21 04:55:00
11:15 PM,48.2,39.2,71,30.07,10.0,Calm,Calm,-,N/A,,Partly Cloudy,0,2013-11-21 05:15:00
11:35 PM,48.2,41.0,76,30.06,10.0,Calm,Calm,-,N/A,,Clear,0,2013-11-21 05:35:00
11:55 PM,48.2,39.2,71,30.07,10.0,Calm,Calm,-,N/A,,Clear,0,2013-11-21 05:55:00